Regional Weather Roundup
Issued by NWS

Home | Current Version | Previous Version | Graphics & Text | Print | Product List | Glossary On
Versions: 1 2 3 4 5 6 7 8 9 10 11 12 13 14 15 16 17 18 19 20 21 22 23 24 25 26 27 28 29 30 31 32 33 34 35 36 37 38 39 40 41 42 43 44 45 46 47 48 49 50
000
ASUS43 KLOT 211710
RWRIL

ILLINOIS REGIONAL WEATHER ROUNDUP
NATIONAL WEATHER SERVICE CHICAGO/ROMEOVILLE IL
1200 PM CDT SUN SEP 21 2014

NOTE: "FAIR" INDICATES FEW OR NO CLOUDS BELOW 12,000 FEET WITH NO
SIGNIFICANT WEATHER AND/OR OBSTRUCTIONS TO VISIBILITY.

* THESE STATIONS ARE NOT UNDER NWS QUALITY CONTROL. THEY ALSO MAY NOT
  REPORT WEATHER SUCH AS PRECIPITATION OR FOG.

ILZ001-002-007-009-015-016-024-211800-
NORTHWEST ILLINOIS

CITY           SKY/WX    TMP DP  RH WIND       PRES   REMARKS
MOLINE         PTSUNNY   64  50  60 NW16G24   30.02R
STERLING*      CLOUDY    61  48  63 N15G22    30.00R
SAVANNA*       CLOUDY    62  50  65 NW14      30.01R
$$

ILZ003-004-008-010-011-017-018-211800-
NORTH CENTRAL ILLINOIS

CITY           SKY/WX    TMP DP  RH WIND       PRES   REMARKS
ROCKFORD       CLOUDY    62  50  64 N17G26    29.98R
ROCHELLE*      CLOUDY    62  50  66 NW21      29.97R
DE KALB*       CLOUDY    58  49  72 NW17      29.96R
PERU*          CLOUDY    63  50  63 NW18G26   29.99R
$$

ILZ005-006-012>014-019>023-211800-
NORTHEAST ILLINOIS

CITY           SKY/WX    TMP DP  RH WIND       PRES   REMARKS
CHICAGO-OHARE  LGT RAIN  61  50  67 NW15G26   29.91R
CHICAGO-MIDWAY PTSUNNY   63  51  65 NW15G24   29.90R
AURORA         CLOUDY    63  49  60 NW17G26   29.94R
LANSING*       CLOUDY    61  50  68 NW13G20   29.90R
JOLIET*        CLOUDY    62  49  61 NW12G20   29.94R
WAUKEGAN       LGT RAIN  60  52  74 NW9G22    29.89R
DUPAGE AIRPORT CLOUDY    60  50  69 NW18G29   29.92R
KANKAKEE*      CLOUDY    62  50  65 NW10G18   29.94R
WHEELING       PTSUNNY   64  52  64 NW13G23   29.91R
MORRIS*        CLOUDY    63  51  65 NW8G18    29.94R
ROMEOVILLE*    CLOUDY    61  49  64 NW16G25   29.92R
NORTHERLY ISL    N/A     62  50  64 W16         N/A
$$

LMZ740>746-211800-
SOUTHERN LAKE MICHIGAN

STATION/POSITION SKY/WX   TEMP    WIND        PRES    VSBY  WAVE
                          AIR SEA DIR/SP/G                  HT/PER
                          (F)     (DEG/KT/KT) (MB)    (MI)  (FT/S)
SOUTHERN BUOY              59 62  330/ 27/ 33 1010.0R         6/ 6
WAUKEGAN HARBOR            61     310/ 13       N/A
HARRISON CRIB              60     310/ 20/ 26   N/A
BURNHAM HARBOR             62     290/ 13/ 20   N/A
CALUMET HARBOR             62     290/  9/ 15 1011.1R
MICHIGAN CITY              60     280/ 30/ 35   N/A
MICHIGAN CITY 6N           60 64  310/ 23/ 29   N/A           7/ 5
ST. JOSEPH                 60 65  300/ 23/ 31   N/A           9/ 6
$$

ILZ025>027-034>036-040-047-049-050-058-095>099-211800-
WEST-CENTRAL ILLINOIS

CITY           SKY/WX    TMP DP  RH WIND       PRES   REMARKS
QUINCY         SUNNY     70  49  47 NW16      30.06S
GALESBURG*     MOSUNNY   66  51  59 NW17G25   30.02R
MACOMB*        SUNNY     69  47  46 NW23G32   30.05R
JACKSONVILLE*  SUNNY     73  52  47 NW16G26   30.04S
PITTSFIELD*    MOSUNNY   73  50  44 NW15G22   30.06S
$$

ILZ028>032-037-038-041>044-048-051>054-059>061-211800-
CENTRAL ILLINOIS

CITY           SKY/WX    TMP DP  RH WIND       PRES   REMARKS
PONTIAC        CLOUDY    64  52  63 NW17G26   29.97R
DECATUR        SUNNY     71  50  47 NW15G25   29.98S
PEORIA         PTSUNNY   69  49  48 NW13G23   29.99R
LACON*         CLOUDY    63  49  60 NW17G25   29.99R
LINCOLN*       SUNNY     72  48  43 NW8G21    29.96S
SPRINGFIELD    SUNNY     73  51  46 NW15G26   30.01S
TAYLORVILLE    SUNNY     72  50  46 NW16G23   30.01S
$$

ILZ033-039-045-046-055>057-062-063-211800-
EAST-CENTRAL ILLINOIS

CITY           SKY/WX    TMP DP  RH WIND       PRES   REMARKS
CHAMPAIGN      SUNNY     71  52  50 W17G33    29.96R
DANVILLE*      SUNNY     70  52  51 W18G25    29.90S
RANTOUL*       MOSUNNY   73  47  39 W17G25    29.95R
MATTOON        SUNNY     71  50  47 NW21G29   29.96F
PARIS*         MOSUNNY   73  52  49 W22G29    29.95F
$$

ILZ079-100>102-211800-
SOUTHWEST ILLINOIS

CITY           SKY/WX    TMP DP  RH WIND       PRES   REMARKS
ALTON          SUNNY     75  46  35 W17G23    30.04S
BELLEVILLE     SUNNY     76  48  37 W13       30.03F
CAHOKIA*       SUNNY     78  46  32 NW12G21   30.05S
SPARTA*        SUNNY     76  49  38 NW9       30.06S
$$

ILZ064>066-069>071-074>076-080>082-084>086-088>090-092>094-211800-
SOUTH-CENTRAL ILLINOIS

CITY           SKY/WX    TMP DP  RH WIND       PRES   REMARKS
CARBONDALE     SUNNY     76  52  43 N9G20     30.04S
CAIRO*         MOSUNNY   80  66  63 NW8G16    30.01F HX  82
EFFINGHAM*     SUNNY     75  48  38 W14G22    29.99F
MARION         SUNNY     75  52  43 NW17      30.04S
MT. VERNON     SUNNY     73  52  46 NW3       30.03S
CENTRALIA*     SUNNY     74  49  40 NW13      30.02F
SALEM*         SUNNY     75  56  51 NW8G18    30.02S
METROPOLIS*    MOSUNNY   79  62  56 NW13      30.00S HX  80
$$

ILZ067-068-072-073-078-083-087-091-211800-
SOUTHEAST ILLINOIS

CITY           SKY/WX    TMP DP  RH WIND       PRES   REMARKS
LAWRENCEVILLE  SUNNY     75  52  44 W17       29.97S
FLORA*         SUNNY     76  49  39 NW9G21    30.00S
FAIRFIELD*     SUNNY    N/A N/A N/A NW8G16    30.00S
HARRISBURG*    SUNNY     76  50  39 NW14      30.02F
ROBINSON*      SUNNY     76  53  43 W15G22    29.97S
CARMI*         SUNNY     77  53  43 NW12      30.00S
$$

ABBREVIATIONS USED IN REMARKS
   TC - TEMPERATURE IN CELSIUS
  WCI - WIND CHILL INDEX
   HX - HEAT INDEX
  VSB - VISIBILITY
$$



USA.gov is the U.S. government's official web portal to all federal, state and local government web resources and services.